Regional Weather Roundup
Issued by NWS

Home | Current Version | Previous Version | Text Only | Print | Product List | Glossary On
Versions: 1 2 3 4 5 6 7 8 9 10 11 12 13 14 15 16 17 18 19 20 21 22 23 24 25 26 27 28 29 30 31 32 33 34 35 36 37 38 39 40 41 42 43 44 45 46 47 48 49 50
572
ASUS45 KABQ 121910
RWRNM
NEW MEXICO REGIONAL WEATHER ROUNDUP
NATIONAL WEATHER SERVICE ALBUQUERQUE NM
1200 PM MST FRI FEB 12 2016

NOTE: "FAIR" MEANS FEW OR NO CLOUDS BELOW 12,000 FEET AGL WITH NO
       SIGNIFICANT WEATHER OR OBSTRUCTIONS TO VISION.

      THIS PRODUCT IS RELEASED AS TWO VERSIONS.  ONE VERSION NEAR
      THE TOP OF THE HOUR CONTAINING PRELIMINARY DATA FROM ALBUQUERQUE
      AND OTHER STATIONS.  A FINAL VERSION WITH ADDITIONAL DATA IS
      ISSUED ABOUT 10 MINUTES AFTER THE HOUR.

NMZ501-503-504-510>518-122000-
NORTHWEST PLATEAU/NORTHCENTRAL MOUNTAINS

CITY           SKY/WX    TMP DP  RH WIND       PRES   REMARKS
FARMINGTON     SUNNY     49  25  39 CALM      30.40F
LOS ALAMOS     SUNNY     53  18  25 CALM      30.43F
SANTA FE       SUNNY     57  17  21 N8        30.39F
TAOS           SUNNY     50  19  29 N6        30.43F
ANGEL FIRE     FAIR      34  24  67 CALM      30.44F

$$
NMZ402-403-502-505>509-122000-
WESTCENTRAL MOUNTAINS/SOUTHWEST MOUNTAINS

CITY           SKY/WX    TMP DP  RH WIND       PRES   REMARKS
GALLUP         SUNNY     56  18  22 SW5       30.42F
GRANTS         SUNNY     61  10  13 NW5       30.42F
SILVER CITY      N/A     68  10  10 S10       30.37F

$$
NMZ407-409-411-412-122000-
SOUTHERN DESERTS

CITY           SKY/WX    TMP DP  RH WIND       PRES   REMARKS
LORDSBURG      FAIR      68  18  14 SE10G16   30.32F
DEMING         SUNNY     71  14  11 E8        30.32F
LAS CRUCES     SUNNY     66  15  13 E5        30.34F
HOLLOMAN AFB   SUNNY     68  13  12 VRB6      30.29F
ALAMOGORDO     SUNNY     66  16  14 S5        30.31F
T OR C         SUNNY     65  14  14 NE6       30.34F

$$
NMZ519>523-122000-
CENTRAL VALLEYS/CENTRAL HIGHLANDS

CITY           SKY/WX    TMP DP  RH WIND       PRES   REMARKS
ALBUQUERQUE    SUNNY     59  18  20 N7        30.38F
DOUBLE EAGLE   SUNNY     57  21  24 CALM      30.40F
MORIARTY ARPT  FAIR      59  12  15 N3        30.40F
CLINES CORNERS SUNNY     56  16  20 S5        30.39F
BELEN          FAIR      60  11  15 CALM      30.38F
SOCORRO        FAIR      60  17  18 N10       30.36F

$$
NMZ524>526-539-540-122000-
SOUTHCENTRAL MOUNTAINS

CITY           SKY/WX    TMP DP  RH WIND       PRES   REMARKS
RUIDOSO          N/A     64   5   9 NE5       30.40F

$$
NMZ527>531-122000-
NORTHEAST HIGHLANDS/NORTHEAST PLAINS

CITY           SKY/WX    TMP DP  RH WIND       PRES   REMARKS
LAS VEGAS      SUNNY     55  22  27 S10       30.40F
RATON          SUNNY     54  18  24 SW3       30.37F
CLAYTON        SUNNY     60  23  24 S12       30.35F

$$
NMZ532>537-122000-
EASTCENTRAL PLAINS

CITY           SKY/WX    TMP DP  RH WIND       PRES   REMARKS
TUCUMCARI      SUNNY     61  23  23 SE9       30.33F
CANNON AFB     SUNNY     63  25  23 E10G20    30.32F
CLOVIS AIRPORT SUNNY     64  28  25 E15       30.34F

$$
NMZ028-029-538-122000-
SOUTHEAST PLAINS

CITY           SKY/WX    TMP DP  RH WIND       PRES   REMARKS
ROSWELL        SUNNY     65  23  20 N10G18    30.30F
ARTESIA        SUNNY     61  27  27 NE10      30.32F
CARLSBAD       SUNNY     64  25  22 N13       30.30F
HOBBS          SUNNY     66  23  19 VRB5      30.31F


$$




USA.gov is the U.S. government's official web portal to all federal, state and local government web resources and services.